Station Historical Data
Daily Summary for January 12, 2012 Units:  English    Metric   Both
« Previous Day
Next Day »
Daily Weekly Monthly Yearly Custom
  High: Low: Average:
Temperature: 46.2 °F 24.0 °F 36.5 °F
Dew Point: 45.2 °F 17.8 °F 33.8 °F
Humidity: 97% 72% 90%
Wind Speed: 20.0mph 2.0mph 7.4mph
Wind Gust: 26.0mph - -
Wind- - WSW
Pressure: 30.00 in 29.65 in -
Precipitation: 0.03 in    
Historical Graphs
 
 
Tabular Data for January 12, 2012
Time Temperature Dew Point Pressure Wind Wind Speed Wind Gust Humidity Rainfall Rate (Hourly) Conditions
00:00 45.5 °F 44.4 °F 29.67 in WSW 6.0 mph 9.0 mph 96% 0.00 in
00:01 45.5 °F 44.4 °F 29.67 in WSW 4.0 mph 8.0 mph 96% 0.00 in
00:06 45.5 °F 44.4 °F 29.67 in SSW 3.0 mph 10.0 mph 96% 0.00 in
00:11 45.5 °F 44.4 °F 29.67 in WSW 5.0 mph 9.0 mph 96% 0.00 in
00:16 45.5 °F 44.4 °F 29.67 in WSW 9.0 mph 9.0 mph 96% 0.00 in
00:21 45.5 °F 44.4 °F 29.67 in SW 5.0 mph 9.0 mph 96% 0.00 in
00:26 45.5 °F 44.4 °F 29.67 in West 4.0 mph 7.0 mph 96% 0.00 in
00:31 45.6 °F 44.5 °F 29.67 in West 7.0 mph 10.0 mph 96% 0.00 in
00:36 45.6 °F 44.5 °F 29.67 in WSW 3.0 mph 8.0 mph 96% 0.00 in
00:41 45.6 °F 44.5 °F 29.67 in WSW 6.0 mph 9.0 mph 96% 0.00 in
00:46 45.6 °F 44.5 °F 29.67 in SW 7.0 mph 9.0 mph 96% 0.00 in
00:51 45.6 °F 44.5 °F 29.67 in WSW 5.0 mph 7.0 mph 96% 0.00 in
00:56 45.6 °F 44.8 °F 29.67 in SW 4.0 mph 6.0 mph 97% 0.00 in
01:01 45.6 °F 44.8 °F 29.67 in SW 6.0 mph 6.0 mph 97% 0.00 in
01:06 45.6 °F 44.8 °F 29.66 in SW 6.0 mph 6.0 mph 97% 0.00 in
01:11 45.6 °F 44.8 °F 29.66 in SW 6.0 mph 6.0 mph 97% 0.00 in
01:16 45.6 °F 44.8 °F 29.66 in SW 6.0 mph 6.0 mph 97% 0.00 in
01:21 45.6 °F 44.8 °F 29.66 in SW 6.0 mph 6.0 mph 97% 0.00 in
01:26 45.6 °F 44.8 °F 29.66 in SW 6.0 mph 6.0 mph 97% 0.00 in
01:31 45.6 °F 44.8 °F 29.65 in SSW 2.0 mph 6.0 mph 97% 0.00 in
01:36 45.6 °F 44.8 °F 29.65 in SSW 5.0 mph 6.0 mph 97% 0.00 in
01:41 45.6 °F 44.8 °F 29.65 in SSW 3.0 mph 6.0 mph 97% 0.00 in
01:46 45.6 °F 44.8 °F 29.65 in SW 6.0 mph 6.0 mph 97% 0.00 in
01:52 45.6 °F 44.8 °F 29.66 in SW 6.0 mph 8.0 mph 97% 0.00 in
01:57 45.7 °F 44.9 °F 29.67 in SW 5.0 mph 10.0 mph 97% 0.00 in
02:02 45.7 °F 44.9 °F 29.67 in SSW 6.0 mph 9.0 mph 97% 0.00 in
02:07 45.7 °F 44.9 °F 29.67 in WSW 6.0 mph 12.0 mph 97% 0.00 in
02:12 45.8 °F 45.0 °F 29.68 in SSW 7.0 mph 11.0 mph 97% 0.00 in
02:17 45.8 °F 45.0 °F 29.68 in SW 6.0 mph 12.0 mph 97% 0.00 in
02:22 45.8 °F 45.0 °F 29.67 in SW 5.0 mph 9.0 mph 97% 0.00 in
02:27 45.9 °F 45.1 °F 29.67 in SW 10.0 mph 10.0 mph 97% 0.00 in
02:32 45.9 °F 45.1 °F 29.67 in SW 8.0 mph 11.0 mph 97% 0.00 in
02:37 45.9 °F 45.1 °F 29.67 in West 4.0 mph 7.0 mph 97% 0.00 in
02:42 45.9 °F 45.1 °F 29.68 in SW 6.0 mph 12.0 mph 97% 0.00 in
02:47 46.0 °F 45.2 °F 29.68 in SW 8.0 mph 11.0 mph 97% 0.00 in
02:52 46.0 °F 45.2 °F 29.68 in WSW 8.0 mph 8.0 mph 97% 0.00 in
02:57 46.0 °F 45.2 °F 29.68 in SW 8.0 mph 11.0 mph 97% 0.00 in
03:02 46.0 °F 45.2 °F 29.68 in WSW 4.0 mph 8.0 mph 97% 0.00 in
03:07 46.0 °F 44.9 °F 29.68 in SW 4.0 mph 9.0 mph 96% 0.00 in
03:12 46.0 °F 44.9 °F 29.68 in SW 8.0 mph 8.0 mph 96% 0.00 in
03:17 46.1 °F 45.0 °F 29.68 in SW 8.0 mph 10.0 mph 96% 0.00 in
03:22 46.1 °F 45.0 °F 29.68 in WSW 6.0 mph 11.0 mph 96% 0.00 in
03:27 46.1 °F 45.0 °F 29.67 in WSW 4.0 mph 7.0 mph 96% 0.00 in
03:32 46.1 °F 45.0 °F 29.68 in WSW 2.0 mph 8.0 mph 96% 0.00 in
03:37 46.1 °F 45.0 °F 29.67 in SW 10.0 mph 10.0 mph 96% 0.00 in
03:42 46.2 °F 45.1 °F 29.68 in SW 4.0 mph 9.0 mph 96% 0.00 in
03:47 46.2 °F 45.1 °F 29.67 in West 3.0 mph 8.0 mph 96% 0.00 in
03:52 46.2 °F 45.1 °F 29.68 in SW 7.0 mph 8.0 mph 96% 0.00 in
03:57 46.2 °F 45.1 °F 29.67 in SW 3.0 mph 7.0 mph 96% 0.00 in
04:02 46.1 °F 45.0 °F 29.67 in SW 4.0 mph 5.0 mph 96% 0.00 in
04:07 46.0 °F 44.9 °F 29.66 in South 4.0 mph 6.0 mph 96% 0.00 in
04:12 46.0 °F 44.9 °F 29.66 in SW 3.0 mph 5.0 mph 96% 0.00 in
04:18 45.9 °F 44.8 °F 29.66 in South 4.0 mph 6.0 mph 96% 0.00 in
04:23 45.9 °F 44.8 °F 29.66 in SW 3.0 mph 7.0 mph 96% 0.00 in
04:28 45.9 °F 44.8 °F 29.66 in SSW 4.0 mph 6.0 mph 96% 0.00 in
04:33 45.9 °F 44.8 °F 29.67 in SW 3.0 mph 8.0 mph 96% 0.00 in
04:38 45.9 °F 44.8 °F 29.66 in SSE 3.0 mph 6.0 mph 96% 0.00 in
04:43 45.9 °F 44.8 °F 29.66 in SSW 2.0 mph 6.0 mph 96% 0.00 in
04:48 45.9 °F 44.8 °F 29.66 in South 2.0 mph 5.0 mph 96% 0.00 in
04:53 45.9 °F 44.8 °F 29.66 in SSW 6.0 mph 7.0 mph 96% 0.00 in
04:58 45.8 °F 44.7 °F 29.65 in South 3.0 mph 6.0 mph 96% 0.00 in
05:03 45.8 °F 44.7 °F 29.65 in SSW 4.0 mph 5.0 mph 96% 0.00 in
05:08 45.8 °F 44.7 °F 29.65 in SSW 2.0 mph 6.0 mph 96% 0.00 in
05:13 45.8 °F 44.7 °F 29.66 in SW 7.0 mph 7.0 mph 96% 0.00 in
05:18 45.8 °F 44.7 °F 29.66 in SW 3.0 mph 6.0 mph 96% 0.00 in
05:23 45.8 °F 44.7 °F 29.65 in SSW 7.0 mph 9.0 mph 96% 0.00 in
05:28 45.9 °F 44.8 °F 29.65 in South 5.0 mph 8.0 mph 96% 0.00 in
05:33 45.8 °F 44.5 °F 29.65 in SSW 7.0 mph 10.0 mph 95% 0.00 in
05:38 45.7 °F 44.3 °F 29.65 in SW 5.0 mph 9.0 mph 95% 0.00 in
05:43 45.7 °F 44.3 °F 29.65 in SW 7.0 mph 8.0 mph 95% 0.00 in
05:48 45.6 °F 44.0 °F 29.65 in SW 5.0 mph 11.0 mph 94% 0.00 in
05:53 45.7 °F 44.1 °F 29.66 in SSW 7.0 mph 9.0 mph 94% 0.00 in
05:58 45.6 °F 44.0 °F 29.66 in SW 3.0 mph 10.0 mph 94% 0.00 in
06:03 45.6 °F 44.0 °F 29.66 in SW 9.0 mph 16.0 mph 94% 0.00 in
06:08 45.7 °F 44.1 °F 29.67 in SW 8.0 mph 12.0 mph 94% 0.00 in
06:13 45.6 °F 44.0 °F 29.66 in SW 11.0 mph 11.0 mph 94% 0.00 in
06:18 45.6 °F 44.0 °F 29.66 in SSW 6.0 mph 11.0 mph 94% 0.00 in
06:23 45.5 °F 43.9 °F 29.66 in SSW 10.0 mph 12.0 mph 94% 0.00 in
06:28 45.4 °F 43.8 °F 29.66 in SSW 4.0 mph 8.0 mph 94% 0.00 in
06:33 45.3 °F 43.7 °F 29.66 in SW 3.0 mph 7.0 mph 94% 0.00 in
06:38 45.3 °F 43.7 °F 29.65 in SSW 2.0 mph 7.0 mph 94% 0.00 in
06:43 45.2 °F 43.6 °F 29.65 in SW 4.0 mph 6.0 mph 94% 0.00 in
06:48 45.2 °F 43.6 °F 29.66 in SW 6.0 mph 6.0 mph 94% 0.00 in
06:53 45.2 °F 43.6 °F 29.66 in WSW 4.0 mph 5.0 mph 94% 0.00 in
06:58 45.2 °F 43.6 °F 29.66 in SSW 2.0 mph 6.0 mph 94% 0.00 in
07:03 45.1 °F 43.5 °F 29.66 in SW 3.0 mph 5.0 mph 94% 0.00 in
07:08 45.1 °F 43.5 °F 29.66 in SW 5.0 mph 5.0 mph 94% 0.00 in
07:13 45.1 °F 43.5 °F 29.66 in WSW 4.0 mph 5.0 mph 94% 0.00 in
07:18 45.1 °F 43.8 °F 29.66 in SSW 2.0 mph 7.0 mph 95% 0.00 in
07:23 45.1 °F 43.8 °F 29.66 in SW 2.0 mph 5.0 mph 95% 0.00 in
07:28 45.1 °F 43.8 °F 29.66 in South 4.0 mph 6.0 mph 95% 0.00 in
07:33 45.1 °F 43.8 °F 29.66 in SW 4.0 mph 7.0 mph 95% 0.00 in
07:38 45.1 °F 44.0 °F 29.66 in SSW 2.0 mph 8.0 mph 96% 0.00 in
07:43 45.1 °F 44.0 °F 29.66 in SSW 5.0 mph 7.0 mph 96% 0.00 in
07:48 45.1 °F 44.0 °F 29.66 in SSW 4.0 mph 6.0 mph 96% 0.00 in
07:53 45.0 °F 43.9 °F 29.66 in SSW 4.0 mph 8.0 mph 96% 0.00 in
07:59 45.0 °F 43.9 °F 29.66 in SSW 4.0 mph 7.0 mph 96% 0.00 in
08:04 45.0 °F 43.9 °F 29.66 in SW 7.0 mph 9.0 mph 96% 0.00 in
08:09 45.1 °F 44.3 °F 29.66 in SW 8.0 mph 10.0 mph 97% 0.00 in
08:14 45.1 °F 44.3 °F 29.66 in WSW 8.0 mph 9.0 mph 97% 0.00 in
08:19 45.2 °F 44.4 °F 29.66 in SW 6.0 mph 9.0 mph 97% 0.00 in
08:24 45.2 °F 44.4 °F 29.66 in SW 8.0 mph 8.0 mph 97% 0.00 in
08:29 45.3 °F 44.5 °F 29.65 in SW 7.0 mph 10.0 mph 97% 0.00 in
08:34 45.4 °F 44.6 °F 29.65 in SW 8.0 mph 11.0 mph 97% 0.00 in
08:39 45.4 °F 44.6 °F 29.65 in SSW 2.0 mph 7.0 mph 97% 0.00 in
08:44 45.5 °F 44.7 °F 29.65 in SW 10.0 mph 10.0 mph 97% 0.00 in
08:49 45.5 °F 44.7 °F 29.66 in SW 6.0 mph 9.0 mph 97% 0.00 in
08:54 45.6 °F 44.8 °F 29.65 in SSE 2.0 mph 8.0 mph 97% 0.00 in
08:59 45.6 °F 44.8 °F 29.65 in SW 5.0 mph 8.0 mph 97% 0.00 in
09:04 45.6 °F 44.8 °F 29.66 in SW 4.0 mph 10.0 mph 97% 0.00 in
09:09 45.7 °F 44.9 °F 29.66 in SW 8.0 mph 10.0 mph 97% 0.00 in
09:14 45.7 °F 44.9 °F 29.66 in SW 6.0 mph 10.0 mph 97% 0.00 in
09:19 45.7 °F 44.9 °F 29.66 in WSW 7.0 mph 8.0 mph 97% 0.00 in
09:24 45.7 °F 44.9 °F 29.66 in WSW 9.0 mph 10.0 mph 97% 0.00 in
09:29 45.7 °F 44.9 °F 29.66 in SW 7.0 mph 9.0 mph 97% 0.10 in
09:34 45.7 °F 44.9 °F 29.66 in WSW 5.0 mph 10.0 mph 97% 0.10 in
09:40 45.2 °F 44.1 °F 29.67 in West 11.0 mph 16.0 mph 96% 0.09 in
09:45 44.5 °F 43.2 °F 29.67 in West 4.0 mph 13.0 mph 95% 0.05 in
09:50 43.9 °F 42.6 °F 29.67 in West 8.0 mph 15.0 mph 95% 0.04 in
09:55 43.6 °F 42.5 °F 29.67 in WSW 4.0 mph 16.0 mph 96% 0.00 in
10:00 43.4 °F 42.3 °F 29.67 in WNW 7.0 mph 14.0 mph 96% 0.00 in
10:05 43.2 °F 42.1 °F 29.68 in WNW 9.0 mph 12.0 mph 96% 0.00 in
10:10 42.8 °F 41.7 °F 29.68 in WNW 6.0 mph 14.0 mph 96% 0.00 in
10:15 42.3 °F 41.0 °F 29.68 in WSW 6.0 mph 11.0 mph 95% 0.00 in
10:20 41.9 °F 40.8 °F 29.68 in WNW 5.0 mph 9.0 mph 96% 0.00 in
10:25 41.7 °F 40.4 °F 29.68 in WNW 10.0 mph 10.0 mph 95% 0.00 in
10:30 41.2 °F 39.9 °F 29.68 in West 10.0 mph 12.0 mph 95% 0.00 in
10:35 40.8 °F 39.2 °F 29.68 in WNW 9.0 mph 17.0 mph 94% 0.00 in
10:36 40.7 °F 39.1 °F 29.68 in West 9.0 mph 13.0 mph 94% 0.00 in
10:41 40.6 °F 39.3 °F 29.68 in WNW 5.0 mph 11.0 mph 95% 0.00 in
10:46 40.6 °F 39.3 °F 29.68 in West 6.0 mph 11.0 mph 95% 0.00 in
10:51 40.6 °F 39.3 °F 29.68 in West 6.0 mph 11.0 mph 95% 0.00 in
10:56 40.6 °F 39.3 °F 29.68 in West 6.0 mph 7.0 mph 95% 0.00 in
11:01 40.6 °F 39.0 °F 29.68 in West 4.0 mph 8.0 mph 94% 0.00 in
11:06 40.7 °F 38.8 °F 29.68 in West 5.0 mph 9.0 mph 93% 0.00 in
11:12 40.8 °F 39.2 °F 29.68 in WSW 7.0 mph 8.0 mph 94% 0.00 in
11:17 40.8 °F 38.9 °F 29.68 in West 6.0 mph 9.0 mph 93% 0.00 in
11:22 40.9 °F 39.0 °F 29.67 in WNW 2.0 mph 9.0 mph 93% 0.00 in
11:27 41.0 °F 39.1 °F 29.68 in West 4.0 mph 8.0 mph 93% 0.00 in
11:32 40.9 °F 39.0 °F 29.67 in West 5.0 mph 8.0 mph 93% 0.00 in
11:37 40.9 °F 39.0 °F 29.68 in West 7.0 mph 7.0 mph 93% 0.00 in
11:42 40.8 °F 38.9 °F 29.67 in WNW 5.0 mph 9.0 mph 93% 0.00 in
11:47 40.8 °F 38.9 °F 29.67 in West 9.0 mph 9.0 mph 93% 0.00 in
11:52 40.8 °F 38.7 °F 29.67 in WSW 14.0 mph 14.0 mph 92% 0.00 in
11:57 40.8 °F 38.9 °F 29.67 in West 15.0 mph 15.0 mph 93% 0.00 in
12:02 40.6 °F 38.5 °F 29.67 in West 8.0 mph 17.0 mph 92% 0.00 in
12:07 40.4 °F 38.3 °F 29.67 in WNW 10.0 mph 15.0 mph 92% 0.00 in
12:12 39.7 °F 37.6 °F 29.67 in WNW 11.0 mph 19.0 mph 92% 0.00 in
12:17 38.8 °F 37.0 °F 29.67 in WNW 9.0 mph 14.0 mph 93% 0.00 in
12:22 37.7 °F 36.1 °F 29.67 in WNW 15.0 mph 15.0 mph 94% 0.00 in
12:27 36.7 °F 35.1 °F 29.67 in WNW 9.0 mph 15.0 mph 94% 0.00 in
12:32 36.0 °F 34.4 °F 29.68 in WNW 6.0 mph 19.0 mph 94% 0.00 in
12:37 35.4 °F 33.8 °F 29.68 in West 11.0 mph 23.0 mph 94% 0.00 in
12:42 35.1 °F 33.8 °F 29.68 in West 8.0 mph 12.0 mph 95% 0.00 in
12:48 34.8 °F 33.5 °F 29.69 in WNW 10.0 mph 19.0 mph 95% 0.00 in
12:52 34.3 °F 33.0 °F 29.69 in WNW 12.0 mph 14.0 mph 95% 0.00 in
12:58 33.6 °F 32.3 °F 29.70 in WNW 18.0 mph 18.0 mph 95% 0.00 in
13:03 33.0 °F 31.7 °F 29.70 in WNW 16.0 mph 20.0 mph 95% 0.00 in
13:08 32.7 °F 31.4 °F 29.72 in WNW 17.0 mph 20.0 mph 95% 0.00 in
13:13 32.4 °F 31.1 °F 29.71 in West 9.0 mph 20.0 mph 95% 0.00 in
13:18 32.2 °F 30.9 °F 29.72 in West 8.0 mph 14.0 mph 95% 0.00 in
13:23 32.1 °F 30.8 °F 29.72 in West 11.0 mph 17.0 mph 95% 0.00 in
13:28 32.0 °F 31.0 °F 29.72 in WNW 15.0 mph 15.0 mph 96% 0.00 in
13:33 31.8 °F 30.8 °F 29.72 in WNW 10.0 mph 19.0 mph 96% 0.00 in
13:38 31.5 °F 30.5 °F 29.73 in WSW 14.0 mph 17.0 mph 96% 0.00 in
13:43 31.4 °F 30.4 °F 29.73 in WSW 13.0 mph 13.0 mph 96% 0.00 in
13:48 31.3 °F 30.0 °F 29.73 in NW 15.0 mph 19.0 mph 95% 0.00 in
13:53 31.2 °F 29.9 °F 29.73 in WSW 11.0 mph 15.0 mph 95% 0.00 in
13:58 31.2 °F 29.7 °F 29.73 in WSW 15.0 mph 16.0 mph 94% 0.00 in
14:03 31.0 °F 29.2 °F 29.73 in WSW 9.0 mph 21.0 mph 93% 0.00 in
14:08 30.9 °F 28.9 °F 29.74 in WSW 18.0 mph 18.0 mph 92% 0.00 in
14:13 30.8 °F 28.8 °F 29.74 in West 7.0 mph 19.0 mph 92% 0.00 in
14:18 30.6 °F 28.6 °F 29.74 in West 13.0 mph 18.0 mph 92% 0.00 in
14:23 30.7 °F 28.7 °F 29.74 in NW 8.0 mph 15.0 mph 92% 0.00 in
14:28 30.7 °F 28.7 °F 29.74 in West 8.0 mph 16.0 mph 92% 0.00 in
14:33 30.5 °F 28.2 °F 29.74 in WNW 15.0 mph 17.0 mph 91% 0.00 in
14:38 30.4 °F 28.4 °F 29.74 in NW 9.0 mph 16.0 mph 92% 0.00 in
14:43 30.3 °F 28.0 °F 29.75 in WSW 15.0 mph 16.0 mph 91% 0.00 in
14:48 30.2 °F 27.6 °F 29.75 in WSW 9.0 mph 21.0 mph 90% 0.00 in
14:53 30.1 °F 27.5 °F 29.75 in West 12.0 mph 13.0 mph 90% 0.00 in
14:58 30.1 °F 27.8 °F 29.76 in West 13.0 mph 13.0 mph 91% 0.00 in
15:03 30.0 °F 27.7 °F 29.76 in WNW 12.0 mph 18.0 mph 91% 0.00 in
15:08 29.4 °F 26.3 °F 29.77 in West 13.0 mph 26.0 mph 88% 0.00 in
15:13 28.7 °F 24.8 °F 29.78 in WNW 20.0 mph 22.0 mph 85% 0.00 in
15:18 28.3 °F 24.4 °F 29.79 in West 9.0 mph 21.0 mph 85% 0.00 in
15:23 28.3 °F 24.4 °F 29.80 in West 6.0 mph 21.0 mph 85% 0.00 in
15:28 28.3 °F 24.1 °F 29.80 in SW 18.0 mph 22.0 mph 84% 0.00 in
15:33 28.3 °F 24.1 °F 29.80 in West 18.0 mph 20.0 mph 84% 0.00 in
15:38 28.3 °F 23.5 °F 29.81 in WSW 10.0 mph 23.0 mph 82% 0.00 in
15:43 28.2 °F 23.1 °F 29.81 in WSW 12.0 mph 19.0 mph 81% 0.00 in
15:48 28.1 °F 23.3 °F 29.82 in West 10.0 mph 20.0 mph 82% 0.00 in
15:53 28.0 °F 23.5 °F 29.82 in WNW 7.0 mph 19.0 mph 83% 0.00 in
15:58 28.1 °F 24.2 °F 29.82 in WNW 7.0 mph 12.0 mph 85% 0.00 in
16:03 28.2 °F 24.6 °F 29.82 in West 6.0 mph 13.0 mph 86% 0.00 in
16:08 28.3 °F 24.9 °F 29.82 in WNW 6.0 mph 7.0 mph 87% 0.00 in
16:13 28.4 °F 24.5 °F 29.82 in WSW 10.0 mph 13.0 mph 85% 0.00 in
16:18 28.8 °F 25.1 °F 29.82 in WSW 13.0 mph 13.0 mph 86% 0.00 in
16:23 28.9 °F 25.2 °F 29.82 in West 6.0 mph 14.0 mph 86% 0.00 in
16:29 28.9 °F 25.0 °F 29.83 in West 8.0 mph 10.0 mph 85% 0.00 in
16:34 29.0 °F 24.8 °F 29.83 in West 8.0 mph 12.0 mph 84% 0.00 in
16:39 28.9 °F 25.0 °F 29.83 in WNW 12.0 mph 13.0 mph 85% 0.00 in
16:44 28.4 °F 25.0 °F 29.84 in WNW 3.0 mph 11.0 mph 87% 0.00 in
16:49 28.0 °F 24.6 °F 29.84 in WSW 9.0 mph 16.0 mph 87% 0.00 in
16:54 27.9 °F 24.5 °F 29.84 in West 7.0 mph 14.0 mph 87% 0.00 in
16:59 27.9 °F 24.5 °F 29.84 in WSW 7.0 mph 13.0 mph 87% 0.00 in
17:04 28.0 °F 24.4 °F 29.84 in WNW 9.0 mph 13.0 mph 86% 0.00 in
17:09 28.0 °F 24.1 °F 29.85 in West 8.0 mph 15.0 mph 85% 0.00 in
17:14 28.0 °F 24.4 °F 29.85 in West 6.0 mph 12.0 mph 86% 0.00 in
17:19 27.9 °F 24.5 °F 29.85 in West 6.0 mph 9.0 mph 87% 0.00 in
17:24 28.0 °F 23.8 °F 29.85 in WNW 6.0 mph 18.0 mph 84% 0.00 in
17:29 28.0 °F 24.1 °F 29.86 in WNW 7.0 mph 12.0 mph 85% 0.00 in
17:34 27.6 °F 24.8 °F 29.87 in West 19.0 mph 20.0 mph 89% 0.00 in
17:39 26.7 °F 24.7 °F 29.87 in WNW 11.0 mph 17.0 mph 92% 0.00 in
17:44 26.5 °F 25.0 °F 29.88 in West 12.0 mph 14.0 mph 94% 0.00 in
17:49 26.4 °F 24.9 °F 29.88 in WNW 5.0 mph 13.0 mph 94% 0.00 in
17:54 26.2 °F 25.0 °F 29.88 in WNW 6.0 mph 11.0 mph 95% 0.00 in
17:59 26.1 °F 24.9 °F 29.88 in WSW 3.0 mph 9.0 mph 95% 0.00 in
18:04 26.0 °F 24.8 °F 29.88 in WSW 8.0 mph 11.0 mph 95% 0.00 in
18:09 25.9 °F 24.4 °F 29.88 in SW 8.0 mph 10.0 mph 94% 0.00 in
18:14 25.9 °F 24.2 °F 29.88 in WSW 9.0 mph 10.0 mph 93% 0.00 in
18:19 25.9 °F 23.6 °F 29.88 in West 5.0 mph 10.0 mph 91% 0.00 in
18:24 25.9 °F 23.1 °F 29.89 in WSW 9.0 mph 12.0 mph 89% 0.00 in
18:29 26.0 °F 22.9 °F 29.90 in WNW 8.0 mph 9.0 mph 88% 0.00 in
18:35 26.0 °F 22.4 °F 29.90 in WSW 8.0 mph 14.0 mph 86% 0.00 in
18:39 26.1 °F 22.2 °F 29.90 in West 6.0 mph 13.0 mph 85% 0.00 in
18:44 26.1 °F 21.9 °F 29.91 in WNW 7.0 mph 10.0 mph 84% 0.00 in
18:50 26.2 °F 21.5 °F 29.91 in West 10.0 mph 13.0 mph 82% 0.00 in
18:55 26.4 °F 21.4 °F 29.91 in WNW 8.0 mph 14.0 mph 81% 0.00 in
19:00 26.4 °F 21.4 °F 29.92 in WNW 9.0 mph 9.0 mph 81% 0.00 in
19:05 26.5 °F 21.5 °F 29.92 in SW 9.0 mph 14.0 mph 81% 0.00 in
19:10 26.5 °F 21.2 °F 29.92 in West 10.0 mph 10.0 mph 80% 0.00 in
19:15 26.5 °F 21.2 °F 29.93 in West 6.0 mph 11.0 mph 80% 0.00 in
19:20 26.6 °F 21.6 °F 29.93 in WNW 6.0 mph 9.0 mph 81% 0.00 in
19:25 26.5 °F 21.5 °F 29.93 in West 11.0 mph 15.0 mph 81% 0.00 in
19:30 26.5 °F 21.2 °F 29.93 in West 5.0 mph 14.0 mph 80% 0.00 in
19:35 26.5 °F 20.6 °F 29.93 in West 12.0 mph 19.0 mph 78% 0.00 in
19:40 26.5 °F 20.6 °F 29.93 in WNW 8.0 mph 17.0 mph 78% 0.00 in
19:45 26.3 °F 20.4 °F 29.93 in WSW 8.0 mph 13.0 mph 78% 0.00 in
19:50 26.2 °F 19.7 °F 29.94 in WSW 7.0 mph 11.0 mph 76% 0.00 in
19:55 26.2 °F 19.4 °F 29.94 in WSW 6.0 mph 15.0 mph 75% 0.00 in
20:00 26.0 °F 19.8 °F 29.94 in West 5.0 mph 8.0 mph 77% 0.00 in
20:05 25.9 °F 19.4 °F 29.94 in West 5.0 mph 14.0 mph 76% 0.00 in
20:10 25.9 °F 19.4 °F 29.95 in WSW 9.0 mph 14.0 mph 76% 0.00 in
20:15 26.0 °F 19.5 °F 29.95 in WSW 10.0 mph 16.0 mph 76% 0.00 in
20:20 25.9 °F 19.4 °F 29.95 in West 10.0 mph 15.0 mph 76% 0.00 in
20:25 25.9 °F 19.1 °F 29.96 in WSW 9.0 mph 16.0 mph 75% 0.00 in
20:30 25.8 °F 19.0 °F 29.96 in WSW 10.0 mph 12.0 mph 75% 0.00 in
20:35 25.8 °F 19.3 °F 29.96 in WSW 4.0 mph 11.0 mph 76% 0.00 in
20:40 25.8 °F 19.3 °F 29.97 in West 10.0 mph 13.0 mph 76% 0.00 in
20:45 25.9 °F 19.7 °F 29.97 in WSW 11.0 mph 11.0 mph 77% 0.00 in
20:50 26.1 °F 19.0 °F 29.97 in West 11.0 mph 18.0 mph 74% 0.00 in
20:55 26.3 °F 19.1 °F 29.97 in WSW 10.0 mph 18.0 mph 74% 0.00 in
21:00 26.3 °F 19.5 °F 29.97 in WNW 9.0 mph 14.0 mph 75% 0.00 in
21:05 26.3 °F 19.5 °F 29.97 in WNW 11.0 mph 14.0 mph 75% 0.00 in
21:10 26.2 °F 19.4 °F 29.97 in WSW 8.0 mph 16.0 mph 75% 0.00 in
21:15 26.2 °F 18.7 °F 29.97 in WSW 9.0 mph 17.0 mph 73% 0.00 in
21:20 26.3 °F 19.1 °F 29.98 in West 14.0 mph 14.0 mph 74% 0.00 in
21:25 26.3 °F 18.8 °F 29.98 in WNW 14.0 mph 15.0 mph 73% 0.00 in
21:30 26.3 °F 18.8 °F 29.98 in WSW 10.0 mph 15.0 mph 73% 0.00 in
21:35 26.2 °F 18.7 °F 29.98 in West 10.0 mph 12.0 mph 73% 0.00 in
21:36 26.2 °F 18.7 °F 29.98 in West 13.0 mph 13.0 mph 73% 0.00 in
21:41 26.2 °F 18.7 °F 29.98 in West 7.0 mph 16.0 mph 73% 0.00 in
21:46 26.2 °F 18.4 °F 29.98 in West 9.0 mph 14.0 mph 72% 0.00 in
21:51 26.2 °F 18.7 °F 29.98 in West 6.0 mph 12.0 mph 73% 0.00 in
21:56 26.1 °F 18.6 °F 29.98 in WSW 6.0 mph 14.0 mph 73% 0.00 in
22:01 25.9 °F 18.5 °F 29.99 in West 9.0 mph 12.0 mph 73% 0.00 in
22:06 25.7 °F 18.6 °F 29.99 in WSW 10.0 mph 11.0 mph 74% 0.00 in
22:11 25.8 °F 18.4 °F 29.98 in WNW 9.0 mph 12.0 mph 73% 0.00 in
22:16 25.8 °F 18.0 °F 29.98 in WSW 10.0 mph 13.0 mph 72% 0.00 in
22:21 25.7 °F 18.3 °F 29.98 in West 5.0 mph 13.0 mph 73% 0.00 in
22:26 25.5 °F 18.1 °F 29.98 in WSW 5.0 mph 10.0 mph 73% 0.00 in
22:31 25.4 °F 18.0 °F 29.98 in West 8.0 mph 12.0 mph 73% 0.00 in
22:36 25.3 °F 18.2 °F 29.98 in WSW 9.0 mph 9.0 mph 74% 0.00 in
22:41 25.1 °F 18.0 °F 29.98 in WSW 12.0 mph 12.0 mph 74% 0.00 in
22:46 25.0 °F 17.9 °F 29.98 in SW 6.0 mph 9.0 mph 74% 0.00 in
22:51 24.9 °F 17.8 °F 29.98 in WSW 9.0 mph 12.0 mph 74% 0.00 in
22:56 24.8 °F 18.0 °F 29.98 in WSW 6.0 mph 10.0 mph 75% 0.00 in
23:02 24.8 °F 18.0 °F 29.98 in SW 5.0 mph 10.0 mph 75% 0.00 in
23:07 24.7 °F 17.9 °F 29.98 in WSW 5.0 mph 10.0 mph 75% 0.00 in
23:12 24.6 °F 18.1 °F 29.98 in WSW 4.0 mph 8.0 mph 76% 0.00 in
23:17 24.4 °F 17.9 °F 29.98 in WSW 7.0 mph 9.0 mph 76% 0.00 in
23:22 24.2 °F 18.0 °F 29.99 in SW 4.0 mph 8.0 mph 77% 0.00 in
23:27 24.1 °F 18.0 °F 29.99 in WSW 5.0 mph 7.0 mph 77% 0.00 in
23:32 24.0 °F 17.9 °F 29.99 in SW 5.0 mph 7.0 mph 77% 0.00 in
23:37 24.0 °F 17.9 °F 29.99 in SW 4.0 mph 8.0 mph 77% 0.00 in
23:42 24.0 °F 18.1 °F 29.99 in SW 8.0 mph 8.0 mph 78% 0.00 in
23:47 24.2 °F 18.3 °F 29.99 in SW 6.0 mph 8.0 mph 78% 0.00 in
23:52 24.2 °F 18.3 °F 30.00 in WSW 6.0 mph 7.0 mph 78% 0.00 in
23:57 24.3 °F 18.1 °F 30.00 in SW 10.0 mph 13.0 mph 77% 0.00 in
Compliments of Weather Underground